[[{"header":{"parameterUnit":"m.s-1","parameterCategory":1,"la1":30.2991,"la2":30.254,"lo1":-89.0895,"lo2":-89.0444,"dy":0.0017,"dx":0.0017,"nx":28,"ny":28,"refTime":"2025-01-11T03:00:00:Z","depth":0,"parameterNumber":2,"parameterNumberName":"U-component_of_WINDS"},"data":[0,0,0,0,0,0,0,0,0,0,0,0,0,0,0,0,0,0,0,0,0,0,0,0,0,0,0,0,0,0,0,0,0,0,0,0,0,0,0,0,0,0,0,0,0,0,0,0,0,0,0,0,0,0,0,0,0,0,4.8795,4.8795,0,4.8865,4.8866,4.8866,4.8804,4.8802,4.8799,4.8797,4.8867,4.8872,4.8876,0,0,0,0,0,0,0,0,0,0,0,0,0,4.8607,4.861,4.8794,4.8795,4.8796,4.8865,4.8866,4.8867,4.8805,4.8802,4.8799,4.8796,4.8866,4.8871,4.8876,0,0,0,0,0,0,0,0,0,0,0,0,0,4.8684,4.8612,4.8794,4.8774,4.8773,4.8864,4.8866,4.8867,4.8806,4.8802,4.8798,4.8794,4.8864,4.8871,4.8877,4.8992,0,0,4.8896,4.8899,0,0,0,0,0,0,0,0,4.8679,4.8691,4.8776,4.8775,4.8774,4.8822,4.8825,4.8909,4.8807,4.8793,4.8797,4.8793,4.8855,4.8862,4.8884,4.8995,4.8998,4.8897,4.8901,4.8903,4.8905,0,0,0,0,0,0,0,4.8674,4.8687,4.8822,4.8777,4.8776,4.8761,4.8768,4.8841,4.8845,4.8794,4.879,4.8799,4.8854,4.8878,4.8885,4.8999,4.8897,4.8902,4.8906,4.8909,4.9211,4.9215,0,0,0,0,0,0,4.8671,4.8683,4.882,4.8824,4.8717,4.8767,4.8775,4.881,4.8844,4.8845,4.8802,4.8796,4.8869,4.8877,4.8887,4.9025,4.8903,4.8909,4.8913,4.9207,4.9212,4.9216,0,0,0,0,0,0,4.8667,4.8684,4.8817,4.8753,4.8768,4.8775,4.8815,4.8814,4.8837,4.885,4.885,4.8825,4.8866,4.8878,4.8967,4.9026,4.8912,4.8918,4.9202,4.9208,4.9214,4.9301,0,0,0,0,0,0,4.8662,4.8683,4.8727,4.8754,4.8772,4.8896,4.8819,4.8818,4.8849,4.8841,4.8872,4.8873,4.8864,4.8958,4.8973,4.9033,4.8923,4.9196,4.9204,4.9212,4.9293,4.931,4.9324,0,0,0,0,0,4.8656,4.8748,4.8729,4.8746,4.8827,4.89,4.891,4.8898,4.8854,4.8898,4.8906,4.8872,4.9018,4.8967,4.8984,4.9047,4.9192,4.9202,4.9211,4.9286,4.9306,4.9324,0,0,0,0,0,0,4.8726,4.8751,4.873,4.8834,4.8866,4.8889,4.8944,4.892,4.8963,4.8954,4.8937,4.8945,4.9039,4.9051,4.8995,4.9161,4.9098,4.9111,4.9149,4.9168,4.9184,4.9178,4.8928,0,0,0,0,0,4.8754,4.8811,4.8829,4.8919,4.8936,4.8938,4.8969,4.8957,4.8988,4.9001,4.9016,4.9047,4.91,4.9135,4.9184,4.9295,4.9301,4.9347,4.9362,4.9375,4.9386,4.9447,4.9468,4.9247,4.9247,4.9247,0,0,4.8811,4.8832,4.8869,4.8934,4.8957,4.9016,4.8949,4.9014,4.9059,4.9011,4.9096,4.9108,4.9142,4.9243,4.9288,4.9256,4.9449,4.9387,4.9397,4.9402,4.9459,4.948,4.9498,4.9254,4.9253,4.9252,0,0,4.8947,4.8968,4.9046,4.907,4.9106,4.9107,4.9126,4.9154,4.916,4.9246,4.9211,4.9264,4.9355,4.9381,4.9406,4.9554,4.9524,4.957,4.9651,4.971,4.9728,4.9743,4.9796,4.9815,4.9582,4.9582,4.9582,0,4.9013,4.9102,4.9089,4.9157,4.9187,4.9148,4.9227,4.9251,4.9301,4.9323,4.9287,4.9402,4.9422,4.9529,4.9565,4.9587,4.9608,4.9566,4.9726,4.9742,4.9756,4.9806,4.9826,4.9587,4.9587,4.9586,4.9586,0,4.9183,4.9245,4.9304,4.9354,4.9391,4.9464,4.9462,4.95,4.9486,4.9491,4.9579,4.9602,4.9656,4.968,4.9666,4.9786,4.9766,4.9729,4.9665,4.9782,4.983,4.9849,4.9595,4.9593,4.9592,4.959,0,0,4.9363,4.9407,4.9428,4.9451,4.9489,4.9537,4.9609,4.9662,4.9696,4.9732,4.9792,4.9872,4.9838,4.9867,4.9856,4.9908,5.0025,4.9865,4.9865,4.9894,5.0159,5.0186,5.0209,5.0006,5.001,5.0013,5.0156,0,4.95,4.9626,4.9617,4.9736,4.9793,4.9758,4.9821,4.9851,4.9858,4.9908,4.9915,4.9972,4.9923,4.994,4.9991,5.0,5.0078,4.999,5.0062,5.0065,5.0054,5.0233,5.0262,5.0396,5.0174,5.0177,5.018,0,4.9677,4.972,4.9845,4.9876,4.9899,4.9956,5.0005,5.0053,5.0087,5.0088,5.0122,5.0103,5.0176,5.0111,5.0212,5.0152,5.0181,5.0191,5.0196,5.0202,5.0129,5.0244,5.0439,5.0459,5.0208,5.0206,5.0204,0,4.9796,4.9886,4.9973,4.9994,5.0031,5.0072,5.0089,5.0119,5.0152,5.0195,5.0217,5.0268,5.0295,5.0335,5.0331,5.0284,5.0434,5.0368,5.0437,5.0437,5.0469,5.0467,5.0671,5.0489,5.0488,5.0488,5.0488,0,4.995,5.0028,5.0027,5.0081,5.0167,5.0156,5.0242,5.0255,5.0282,5.0337,5.031,5.0362,5.0352,5.0405,5.0402,5.0486,5.0499,5.0502,5.05,5.0505,5.0504,5.0523,5.0514,5.0493,5.0492,5.0491,5.049,0,5.0098,5.0101,5.0193,5.0221,5.023,5.0293,5.0317,5.0368,5.0373,5.0443,5.0459,5.0467,5.0528,5.0528,5.0596,5.0594,5.0698,5.0685,5.0687,5.0684,5.0753,5.0747,5.0976,5.1006,5.0804,5.0806,5.0808,0,5.0196,5.0255,5.0291,5.0326,5.0347,5.0404,5.0438,5.043,5.0467,5.0511,5.0556,5.0615,5.0661,5.0759,5.0771,5.0824,5.0813,5.089,5.082,5.0823,5.0814,5.0811,5.0817,5.0903,5.0905,5.0907,5.0908,0,5.037,5.0369,5.042,5.0472,5.0514,5.0554,5.0591,5.0621,5.0618,5.066,5.0723,5.0759,5.083,5.0888,5.0939,5.0957,5.0933,5.093,5.0949,5.0954,5.0952,5.0955,5.0724,5.0925,5.0923,5.0922,5.0921,5.092,5.0496,5.0548,5.0581,5.0639,5.0666,5.0702,5.0751,5.0764,5.0815,5.0873,5.0865,5.0935,5.0968,5.1035,5.1057,5.1112,5.1085,5.1112,5.1118,5.1125,5.1133,5.0944,5.1121,5.112,5.112,5.112,5.1119,0,5.0669,5.0689,5.0743,5.0796,5.0842,5.0816,5.0856,5.0896,5.0958,5.0991,5.1038,5.111,5.1167,5.1184,5.1239,5.1279,5.127,5.1294,5.1291,5.1296,5.1154,5.1132,5.1301,5.1301,5.1301,5.1301,5.1301,5.1301,5.0764,5.085,5.0854,5.0953,5.0973,5.1041,5.1066,5.1099,5.1126,5.1208,5.1256,5.1267,5.1294,5.1351,5.1403,5.1406,5.1428,5.1457,5.1456,5.1324,5.1305,5.1288,5.1267,5.1462,5.1462,5.1593,5.1595,5.1596]},{"header":{"parameterUnit":"m.s-1","parameterCategory":1,"la1":30.2991,"la2":30.254,"lo1":-89.0895,"lo2":-89.0444,"dy":0.0017,"dx":0.0017,"nx":28,"ny":28,"refTime":"2025-01-11T03:00:00:Z","depth":0,"parameterNumber":3,"parameterNumberName":"V-component_of_WINDS"},"data":[0,0,0,0,0,0,0,0,0,0,0,0,0,0,0,0,0,0,0,0,0,0,0,0,0,0,0,0,0,0,0,0,0,0,0,0,0,0,0,0,0,0,0,0,0,0,0,0,0,0,0,0,0,0,0,0,0,0,-5.88,-5.8801,0,-5.8982,-5.8984,-5.8986,-5.8948,-5.8945,-5.8942,-5.8938,-5.9125,-5.9133,-5.9141,0,0,0,0,0,0,0,0,0,0,0,0,0,-5.8419,-5.8426,-5.8799,-5.8802,-5.8804,-5.8982,-5.8984,-5.8987,-5.8949,-5.8945,-5.8941,-5.8937,-5.9122,-5.9132,-5.9142,0,0,0,0,0,0,0,0,0,0,0,0,0,-5.8591,-5.8429,-5.8799,-5.8806,-5.8809,-5.8981,-5.8984,-5.8987,-5.895,-5.8945,-5.894,-5.8935,-5.9119,-5.9131,-5.9143,-5.9319,0,0,-5.918,-5.9185,0,0,0,0,0,0,0,0,-5.8581,-5.8605,-5.8803,-5.8806,-5.8809,-5.8937,-5.8918,-5.9098,-5.8951,-5.8896,-5.8938,-5.8932,-5.9067,-5.9083,-5.9128,-5.9327,-5.9335,-5.9181,-5.9188,-5.9194,-5.9197,0,0,0,0,0,0,0,-5.857,-5.8597,-5.8871,-5.8806,-5.881,-5.8801,-5.882,-5.8952,-5.9007,-5.8901,-5.8898,-5.892,-5.9067,-5.9116,-5.9132,-5.9338,-5.9181,-5.9192,-5.9199,-5.9204,-5.9693,-5.9698,0,0,0,0,0,0,-5.8555,-5.8587,-5.8866,-5.8877,-5.8681,-5.8812,-5.8833,-5.8901,-5.9006,-5.9017,-5.8925,-5.8918,-5.9098,-5.9118,-5.9138,-5.9352,-5.9194,-5.9205,-5.9212,-5.9687,-5.9694,-5.97,0,0,0,0,0,0,-5.8547,-5.858,-5.8858,-5.8732,-5.8766,-5.8824,-5.8901,-5.8907,-5.8956,-5.9024,-5.9034,-5.8965,-5.9095,-5.9121,-5.9275,-5.9358,-5.921,-5.9221,-5.968,-5.9689,-5.9697,-5.9781,0,0,0,0,0,0,-5.8536,-5.8577,-5.8644,-5.8733,-5.8773,-5.8992,-5.8906,-5.8915,-5.8978,-5.8971,-5.9064,-5.9075,-5.9093,-5.9257,-5.9287,-5.9372,-5.9231,-5.9673,-5.9684,-5.9694,-5.9771,-5.9791,-5.9808,0,0,0,0,0,-5.8523,-5.866,-5.8648,-5.8682,-5.8859,-5.8996,-5.9019,-5.9037,-5.8984,-5.9053,-5.9096,-5.9072,-5.9344,-5.9273,-5.9306,-5.9397,-5.9668,-5.9681,-5.9693,-5.9762,-5.9787,-5.9808,0,0,0,0,0,0,-5.8579,-5.8672,-5.8659,-5.883,-5.8906,-5.899,-5.9076,-5.9063,-5.9155,-5.9145,-5.9163,-5.9185,-5.9341,-5.9384,-5.9303,-5.9573,-5.9498,-5.9519,-5.9539,-5.9563,-5.9582,-5.9569,-5.9241,0,0,0,0,0,-5.8612,-5.8716,-5.8791,-5.8935,-5.8973,-5.9019,-5.9079,-5.9087,-5.9166,-5.9197,-5.9252,-5.933,-5.9433,-5.95,-5.9599,-5.9777,-5.9797,-5.9855,-5.9874,-5.9889,-5.9907,-6.0005,-6.0033,-5.9742,-5.9742,-5.9742,0,0,-5.868,-5.8743,-5.8808,-5.8948,-5.9007,-5.9115,-5.9046,-5.9162,-5.9242,-5.9215,-5.9363,-5.9406,-5.9494,-5.9661,-5.9737,-5.9702,-5.9992,-5.9906,-5.9917,-5.9927,-6.0021,-6.0049,-6.0073,-5.9751,-5.9749,-5.9748,0,0,-5.8859,-5.8917,-5.9044,-5.9105,-5.9196,-5.9225,-5.9256,-5.9342,-5.937,-5.9519,-5.9501,-5.9597,-5.9774,-5.9838,-5.9894,-6.0098,-6.008,-6.013,-6.0229,-6.0325,-6.0347,-6.0368,-6.0442,-6.0468,-6.0147,-6.0147,-6.0147,0,-5.8932,-5.9093,-5.911,-5.9229,-5.9292,-5.9272,-5.9401,-5.946,-5.9578,-5.9622,-5.9581,-5.9804,-5.9861,-6.0043,-6.0093,-6.0139,-6.0175,-6.012,-6.0343,-6.0363,-6.0383,-6.0454,-6.0481,-6.0153,-6.0152,-6.0151,-6.0151,0,-5.9179,-5.9292,-5.9383,-5.9499,-5.9571,-5.9695,-5.9731,-5.9802,-5.9804,-5.9838,-5.9991,-6.006,-6.0172,-6.0216,-6.0218,-6.0399,-6.0374,-6.0338,-6.0263,-6.0416,-6.0483,-6.051,-6.0161,-6.0159,-6.0157,-6.0156,0,0,-5.9399,-5.9523,-5.9557,-5.9609,-5.9709,-5.9796,-5.9919,-6.003,-6.0092,-6.0174,-6.0278,-6.0429,-6.0396,-6.046,-6.0469,-6.0553,-6.0713,-6.0507,-6.0509,-6.0543,-6.0918,-6.0945,-6.0976,-6.0701,-6.0706,-6.071,-6.0911,0,-5.9588,-5.9805,-5.9824,-6.0019,-6.0124,-6.0107,-6.0214,-6.0287,-6.0323,-6.0417,-6.0455,-6.0563,-6.0511,-6.0549,-6.0631,-6.0676,-6.0788,-6.0662,-6.0798,-6.0803,-6.0778,-6.1011,-6.104,-6.1226,-6.0937,-6.0941,-6.0944,0,-5.9838,-5.9928,-6.0134,-6.022,-6.0265,-6.0361,-6.0464,-6.0554,-6.0637,-6.0657,-6.0728,-6.0727,-6.0854,-6.0775,-6.095,-6.0864,-6.0921,-6.0952,-6.0959,-6.0973,-6.0883,-6.1032,-6.1286,-6.1314,-6.0986,-6.0982,-6.0979,0,-5.9979,-6.0152,-6.0298,-6.0343,-6.0447,-6.0515,-6.0562,-6.064,-6.0705,-6.0796,-6.0839,-6.0943,-6.1001,-6.1081,-6.1109,-6.1048,-6.1284,-6.1206,-6.1305,-6.1304,-6.1356,-6.1352,-6.1623,-6.1391,-6.1391,-6.139,-6.1389,0,-6.0188,-6.0315,-6.0363,-6.0453,-6.0594,-6.0615,-6.0755,-6.0798,-6.0868,-6.0966,-6.0958,-6.105,-6.108,-6.1178,-6.1199,-6.1343,-6.1368,-6.1388,-6.1393,-6.139,-6.1387,-6.1428,-6.1416,-6.1397,-6.1396,-6.1394,-6.1393,0,-6.037,-6.0407,-6.0565,-6.0651,-6.0675,-6.0776,-6.085,-6.0937,-6.097,-6.1095,-6.1125,-6.1179,-6.1294,-6.1328,-6.1466,-6.1481,-6.1649,-6.1641,-6.1621,-6.1622,-6.1719,-6.171,-6.2026,-6.2069,-6.1808,-6.181,-6.1812,0,-6.0502,-6.0599,-6.0695,-6.0761,-6.081,-6.0915,-6.0983,-6.1007,-6.1078,-6.118,-6.1255,-6.1369,-6.1461,-6.1645,-6.1697,-6.1802,-6.1798,-6.1901,-6.1814,-6.1808,-6.1801,-6.1795,-6.1806,-6.1918,-6.1921,-6.1923,-6.1925,0,-6.0732,-6.0746,-6.0843,-6.0948,-6.1029,-6.1112,-6.1192,-6.1246,-6.1283,-6.1363,-6.148,-6.1552,-6.1693,-6.1807,-6.1914,-6.1962,-6.1951,-6.1952,-6.1981,-6.1979,-6.1964,-6.1975,-6.1668,-6.1945,-6.1943,-6.1941,-6.194,-6.1939,-6.0894,-6.098,-6.1062,-6.1171,-6.1234,-6.131,-6.1396,-6.1441,-6.1539,-6.1657,-6.1665,-6.1793,-6.1874,-6.2018,-6.2072,-6.2172,-6.2142,-6.2183,-6.2194,-6.2204,-6.2213,-6.1947,-6.2192,-6.2191,-6.2191,-6.219,-6.219,0,-6.1125,-6.1177,-6.1277,-6.139,-6.1476,-6.1457,-6.1546,-6.1619,-6.1732,-6.1808,-6.19,-6.2035,-6.2146,-6.2206,-6.2316,-6.2385,-6.2382,-6.2413,-6.2409,-6.242,-6.2232,-6.2197,-6.2413,-6.2413,-6.2413,-6.2413,-6.2413,-6.2413,-6.1256,-6.1401,-6.1424,-6.1601,-6.1652,-6.1777,-6.1829,-6.19,-6.1961,-6.2113,-6.2205,-6.2243,-6.2314,-6.243,-6.253,-6.2545,-6.2587,-6.2621,-6.2633,-6.2456,-6.2433,-6.2412,-6.2379,-6.263,-6.263,-6.2813,-6.2814,-6.2816]}]]